Location: Pedholt
(56.0260°N, 10.2097°E)
Time: 20:04:33
(UTC+00:00)

Transit 2A Rocket - Pass Details

Date: 05 August 2021
Orbit: 586 x 917 km, 66.7° (Epoch: 27 September)

Event Time Altitude Azimuth Distance (km) Brightness Sun altitude
Rises 21:19:05 0° 314° (NW) 3,249 9.9 -12.6°
Reaches altitude 10° 21:21:34 10° 306° (NW) 2,371 8.7 -12.7°
Maximum altitude 21:26:30 35° 242° (WSW) 1,324 6.2 -13.1°
Enters shadow 21:30:54 14° 182° (S) 2,243 6.9 -13.4°
Drops below altitude 10° 21:31:46 10° 178° (S) 2,532 - -13.4°
Sets 21:34:31 0° 170° (S) 3,500 - -13.6°
